SCP
0 0 0 -0 -0 0 0 0 0 0 0 0 0 0 -0 -0 -0 -0 -0 -0 -0 -0 -0 -0 -0 -0 0
0 0 0 0 0 0 0 0 0 0 0 0 0 0 0 0 -0 -0 -0 -0 -0 -0 -0 -0 -0 -0 0
0 0 0 0 0 0 0 0 0 0 0 0 0 0 0 0 0 -0 -0 -0 -0 -0 -0 -0 0 0 0
0 0 0 0 0 0 0 0 0 0 0 0 0 0 0 0 0 -0 -0 -0 -0 -0 0 0 0 0 0
0 0 0 0 0 0 0 0 0 0 0 0 0 0 0 0 0 0 0 0 0 0 0 0 0 0 0
0 0 0 0 0 0 0 0 0 0 0 0 0 0 0 0 0 0 0 0 0 0 0 0 0 0 0
0 0 0 0 0 0 0 0 0 0 0 0 0 0 0 0 0 0 0 0 0 0 0 0 0 0 0
0 0 0 0 0 0 0 0 0 0 0 0 0 0 0 0 0 0 0 0 0 0 0 0 0 0 0
0 0 0 0 0 0 0 0 0 0 0 0 0 0 0 0 0 0 0 0 0 0 0 0 0 0 0
0 0 0 0 0 0 0 0 0 0 0 0 0 0 0 0 0 0 0 0 0 0 0 0 0 0 0
0 0 0 0 0 0 0 0 0 0 0 0 0 0 0 0 0 0 0 0 0 0 0 0 0 0 0
0 0 0 0 0 0 0 0 0 0 0 0 0 0 0 0 0 0 0 0 0 0 0 0 0 0 0
0 0 0 0 0 0 0 0 0 0 0 0 0 0 0 0 0 0 0 0 0 0 0 0 0 0 0
0 0 0 0 0 0 0 0 0 0 0 0 0 0 0 0 0 0 0 0 0 0 0 0 0 0 0
0 0 0 0 0 0 0 0 0 0 0 0 0 0 0 0 0 0 0 0 0 0 0 0 0 0 0
0 0 0 0 0 0 0 0 0 0 0 0 0 0 0 0 0 0 0 0 0 0 0 0 0 0 0
Wind_Speed_500mb
35 35 31 23 30 36 31 31 29 26 27 22 22 38 31 30 26 27 23 21 18 19 15 11 12 14 16
38 40 31 25 26 30 32 31 27 28 30 25 22 25 26 27 26 27 23 18 17 17 14 10 11 14 13
37 39 32 32 28 27 28 27 27 27 28 27 18 18 18 20 25 25 24 19 18 15 11 3 5 9 11
35 39 37 35 33 31 31 28 26 26 27 25 23 15 14 16 21 25 25 21 18 16 10 5 7 3 5
33 39 36 41 40 35 34 30 29 28 31 30 27 23 20 20 23 26 27 23 22 18 12 12 12 7 5
31 37 30 36 39 42 38 35 31 27 36 35 28 26 25 25 26 25 26 28 24 22 16 16 16 16 11
34 34 35 35 39 41 38 36 33 33 35 41 34 33 28 27 26 25 25 24 24 24 22 20 21 20 19
38 35 34 33 40 37 37 38 37 33 35 39 34 35 32 29 28 26 26 26 25 24 23 24 26 27 28
42 38 38 38 37 41 37 36 37 36 37 37 35 35 33 31 30 29 28 28 27 26 26 26 27 30 31
48 45 44 42 44 43 42 39 38 37 37 36 36 36 34 32 32 32 32 31 30 29 30 30 31 35 37
41 47 50 52 52 50 50 46 42 40 37 36 36 38 37 35 35 35 35 34 34 34 34 35 37 38 41
39 42 55 57 65 64 59 54 48 44 40 39 41 40 40 39 39 39 38 38 39 37 36 37 44 44 45
38 45 58 53 55 80 58 63 52 47 46 43 45 42 42 45 43 37 36 40 40 37 38 39 42 43 45
48 42 46 37 49 68 65 63 63 52 53 49 49 46 45 48 48 46 43 41 43 42 43 38 32 27 30
46 53 43 41 32 41 47 49 50 58 71 61 58 54 51 50 51 51 50 48 47 45 45 37 16 12 20
29 38 35 42 44 41 49 57 44 44 44 59 63 64 64 60 55 56 55 54 51 55 52 56 53 49 26
Wind_Direction_500mb
164 157 153 138 150 152 154 167 173 167 160 144 136 167 169 172 165 173 164 149 136 121 111 107 99 81 96
171 161 161 165 156 165 172 173 174 169 162 152 149 163 188 184 179 179 171 159 147 133 115 113 91 75 94
167 170 173 177 171 170 174 182 181 175 167 162 160 165 180 198 189 184 189 174 163 153 137 132 104 88 89
171 177 179 188 190 187 189 192 190 180 181 185 167 184 174 186 177 178 190 177 172 183 178 198 175 109 81
184 184 187 192 193 199 200 202 201 194 191 188 184 190 182 179 184 184 191 196 199 202 215 203 206 222 236
189 190 196 196 205 203 208 210 211 200 192 194 190 198 192 191 191 193 198 208 209 210 220 210 216 231 230
208 204 206 204 207 208 213 215 219 214 203 206 202 200 202 204 205 208 212 218 221 223 225 223 222 232 229
212 221 227 222 217 217 222 225 226 224 216 219 212 210 209 210 214 216 222 222 224 227 230 233 237 239 238
231 227 231 235 234 229 232 232 228 229 222 223 220 217 217 219 219 222 225 228 231 234 239 245 246 246 247
237 236 240 237 245 240 235 236 232 230 226 228 225 224 224 224 226 230 233 234 237 241 246 251 254 253 252
254 244 244 243 243 246 238 238 234 232 232 232 233 231 231 232 234 237 240 242 246 250 254 259 261 261 255
265 261 251 247 240 241 243 243 235 235 235 234 235 235 233 236 239 242 243 244 248 255 262 265 262 258 256
256 270 246 226 255 247 244 246 243 235 237 238 240 235 234 237 241 247 251 251 253 255 266 278 282 273 267
233 248 250 247 254 253 260 247 252 247 233 234 239 239 238 239 242 245 245 249 249 248 258 276 290 295 290
229 236 240 243 228 233 242 253 252 253 237 238 239 241 242 243 247 251 253 251 253 251 255 256 267 257 305
230 223 224 233 241 233 244 253 261 245 246 238 242 243 245 244 245 250 254 254 251 251 253 252 260 263 272
Wind_Speed_850mb
35 35 31 23 30 36 31 31 29 26 27 22 22 38 31 30 26 27 23 21 18 19 15 11 12 14 16
38 40 31 25 26 30 32 31 27 28 30 25 22 25 26 27 26 27 23 18 17 17 14 10 11 14 13
37 39 32 32 28 27 28 27 27 27 28 27 18 18 18 20 25 25 24 19 18 15 11 3 5 9 11
35 39 37 35 33 31 31 28 26 26 27 25 23 15 14 16 21 25 25 21 18 16 10 5 7 3 5
33 39 36 41 40 35 34 30 29 28 31 30 27 23 20 20 23 26 27 23 22 18 12 12 12 7 5
31 37 30 36 39 42 38 35 31 27 36 35 28 26 25 25 26 25 26 28 24 22 16 16 16 16 11
34 34 35 35 39 41 38 36 33 33 35 41 34 33 28 27 26 25 25 24 24 24 22 20 21 20 19
38 35 34 33 40 37 37 38 37 33 35 39 34 35 32 29 28 26 26 26 25 24 23 24 26 27 28
42 38 38 38 37 41 37 36 37 36 37 37 35 35 33 31 30 29 28 28 27 26 26 26 27 30 31
48 45 44 42 44 43 42 39 38 37 37 36 36 36 34 32 32 32 32 31 30 29 30 30 31 35 37
41 47 50 52 52 50 50 46 42 40 37 36 36 38 37 35 35 35 35 34 34 34 34 35 37 38 41
39 42 55 57 65 64 59 54 48 44 40 39 41 40 40 39 39 39 38 38 39 37 36 37 44 44 45
38 45 58 53 55 80 58 63 52 47 46 43 45 42 42 45 43 37 36 40 40 37 38 39 42 43 45
48 42 46 37 49 68 65 63 63 52 53 49 49 46 45 48 48 46 43 41 43 42 43 38 32 27 30
46 53 43 41 32 41 47 49 50 58 71 61 58 54 51 50 51 51 50 48 47 45 45 37 16 12 20
29 38 35 42 44 41 49 57 44 44 44 59 63 64 64 60 55 56 55 54 51 55 52 56 53 49 26
Wind_Direction_850mb
164 157 153 138 150 152 154 167 173 167 160 144 136 167 169 172 165 173 164 149 136 121 111 107 99 81 96
171 161 161 165 156 165 172 173 174 169 162 152 149 163 188 184 179 179 171 159 147 133 115 113 91 75 94
167 170 173 177 171 170 174 182 181 175 167 162 160 165 180 198 189 184 189 174 163 153 137 132 104 88 89
171 177 179 188 190 187 189 192 190 180 181 185 167 184 174 186 177 178 190 177 172 183 178 198 175 109 81
184 184 187 192 193 199 200 202 201 194 191 188 184 190 182 179 184 184 191 196 199 202 215 203 206 222 236
189 190 196 196 205 203 208 210 211 200 192 194 190 198 192 191 191 193 198 208 209 210 220 210 216 231 230
208 204 206 204 207 208 213 215 219 214 203 206 202 200 202 204 205 208 212 218 221 223 225 223 222 232 229
212 221 227 222 217 217 222 225 226 224 216 219 212 210 209 210 214 216 222 222 224 227 230 233 237 239 238
231 227 231 235 234 229 232 232 228 229 222 223 220 217 217 219 219 222 225 228 231 234 239 245 246 246 247
237 236 240 237 245 240 235 236 232 230 226 228 225 224 224 224 226 230 233 234 237 241 246 251 254 253 252
254 244 244 243 243 246 238 238 234 232 232 232 233 231 231 232 234 237 240 242 246 250 254 259 261 261 255
265 261 251 247 240 241 243 243 235 235 235 234 235 235 233 236 239 242 243 244 248 255 262 265 262 258 256
256 270 246 226 255 247 244 246 243 235 237 238 240 235 234 237 241 247 251 251 253 255 266 278 282 273 267
233 248 250 247 254 253 260 247 252 247 233 234 239 239 238 239 242 245 245 249 249 248 258 276 290 295 290
229 236 240 243 228 233 242 253 252 253 237 238 239 241 242 243 247 251 253 251 253 251 255 256 267 257 305
230 223 224 233 241 233 244 253 261 245 246 238 242 243 245 244 245 250 254 254 251 251 253 252 260 263 272